Back to catalog

STARLINK-31392

AliveCommunicationsVLEO
NORAD 59530·PAYLOAD·🇺🇸 United States

Launched Apr 17, 2024 from Cape Canaveral Space Force Station

Loading…

Next Passes (next 24 hours)

TLE

FreshSource: CelesTrak SupGP

Epoch: Sep 14, 2026, 15:03 UTC

1 59530C 24073V   26257.62756944  .00046304  00000+0  16776-2 0  2575
2 59530  43.0025 331.0442 0001293 279.5300 333.3488 15.27547642    12

Track STARLINK-31392 in real time with AllMySat

Download on the App Store